Flag for Spain Weather past 2 weeks in Sevilla, Spain

Now
63 °F

Clear.


Feels Like: 63 °F
Forecast: 59 / 81 °F
Wind: 2 mph from Southwest

Location: Sevilla / San Pablo

Current Time: Sep 4, 2015 at 8:59:58 AM

Latest Report: Sep 4, 2015 at 8:30 AM


Visibility: 10 mi

Pressure: 29.98 "Hg

Humidity: 88%

Dew point: 59 °F

Location of SevillaLocation

Historic Weather in Sevilla — Graph

°F

Sevilla temperature yesterday

Maximum temperature yesterday: 81 °F (at 3:30 PM)
Minimum temperature yesterday: 61 °F (at 7:30 AM)
Average temperature yesterday: 70 °F

Past Weeks' High & Low Weather Summary

 TemperatureHumidityPressure
High102 °F (Aug 28, 5:30 PM)88% (Aug 22, 6:00 AM)30.07 "Hg (Aug 22, 6:00 AM)
Low61 °F (Aug 25, 6:30 AM)14% (Aug 25, 8:00 PM)29.83 "Hg (Aug 28, 7:00 PM)
Average79 °F53%29.97 "Hg
* Reported Aug 20 8:00 AM — Sep 4 8:00 AM, Sevilla, Weather by CustomWeather, © 2015

Note: Actual official high and low records may vary slightly from our data, if they occured in-between our weather recording intervals... More about our weather records

Advertising

Sevilla weather history for previous 24 hours

 ConditionsComfort  
Time TempWeatherWind HumidityBarometerVisibility
8:00 AM
Fri, Sep 4
63 °FClear.1 mph83%29.98 "Hg10 mi
7:30 AM63 °FClear.2 mph83%29.95 "Hg10 mi
7:00 AM63 °FClear.1 mph83%29.95 "Hg10 mi
6:30 AM63 °FClear.2 mph83%29.95 "Hg10 mi
6:00 AM63 °FClear.No wind83%29.95 "Hg10 mi
5:30 AM63 °FClear.2 mph83%29.95 "Hg10 mi
5:00 AM64 °FClear.2 mph78%29.95 "Hg10 mi
4:30 AM64 °FPassing clouds.3 mph78%29.95 "HgN/A
4:00 AM64 °FPassing clouds.5 mph78%29.95 "HgN/A
3:30 AM66 °FPassing clouds.5 mph73%29.95 "HgN/A
1:00 AM66 °FPassing clouds.6 mph73%29.98 "HgN/A
12:30 AM66 °FPassing clouds.3 mph73%29.98 "HgN/A
11:00 PM
Thu, Sep 3
68 °FPassing clouds.7 mph64%29.98 "HgN/A
10:30 PM68 °FPassing clouds.9 mph64%29.98 "HgN/A
10:00 PM68 °FClear.13 mph64%29.95 "Hg10 mi
9:30 PM70 °FSunny.13 mph60%29.95 "Hg10 mi
9:00 PM70 °FSunny.13 mph60%29.95 "Hg10 mi
8:30 PM72 °FPassing clouds.15 mph57%29.95 "HgN/A
8:00 PM73 °FPassing clouds.17 mph53%29.92 "HgN/A
7:30 PM73 °FPassing clouds.15 mph53%29.92 "HgN/A
7:00 PM75 °FPassing clouds.15 mph50%29.92 "HgN/A
6:30 PM75 °FPassing clouds.15 mph47%29.92 "HgN/A
6:00 PM77 °FPassing clouds.14 mph44%29.92 "HgN/A
5:30 PM77 °FPassing clouds.10 mph39%29.92 "HgN/A
5:00 PM79 °FPassing clouds.13 mph37%29.92 "HgN/A
4:30 PM81 °FPassing clouds.9 mph32%29.95 "HgN/A
4:00 PM79 °FPassing clouds.10 mph32%29.95 "HgN/A
3:30 PM81 °FPassing clouds.10 mph32%29.95 "HgN/A
3:00 PM77 °FPassing clouds.9 mph34%29.95 "HgN/A
2:30 PM77 °FPassing clouds.8 mph34%29.98 "HgN/A
2:00 PM75 °FPassing clouds.14 mph36%29.98 "HgN/A
1:30 PM75 °FPassing clouds.10 mph41%29.98 "HgN/A
1:00 PM73 °FPassing clouds.8 mph47%30.01 "HgN/A
12:30 PM73 °FPassing clouds.8 mph44%30.01 "HgN/A
12:00 PM72 °FPassing clouds.6 mph53%30.01 "HgN/A
11:30 AM72 °FPassing clouds.2 mph57%30.01 "HgN/A
11:00 AM68 °FScattered clouds.2 mph64%30.01 "HgN/A
10:30 AM66 °FScattered clouds.3 mph64%30.01 "HgN/A
10:00 AM64 °FScattered clouds.3 mph68%30.01 "HgN/A
9:30 AM64 °FPartly sunny.5 mph68%30.01 "HgN/A
9:00 AM63 °FPartly sunny.3 mph73%30.01 "HgN/A
8:30 AM61 °FPassing clouds.3 mph83%29.98 "HgN/A
8:00 AM61 °FPassing clouds.2 mph83%29.98 "HgN/A
Weather by CustomWeather, © 2015

See weather overviewHow to use our weather pages